ARIANE 1 DEB, 28556

Orbit data source: Space-Track

ARIANE 1 DEB, 28556 is space debris in HEO originally from a launch on Mon, 24 Dec 1979 UTC launched from the French Guiana (FRGUI). Debris objects in space refer to the collection of defunct objects orbiting the Earth. Examples of debris include non-operational satellites, rocket bodies, and fragments generated from explosions, collisions, or faulty payload assembly.

Loading next visibility...
Identifier
28556, 1979-104V
Orbit
HEO
Country
Flag of FRFR
Related business
Manufacturer
Unknown
Mission
Spacecraft
Bus & Motor
Unknown
Mass
Unknown
Launch date (UTC)
1979-12-24 (46 years ago)
Launch vehicle
Unknown
Launch site
French Guiana (FRGUI)
Object type
Payload
Rocket body
Debris
Shape & HBR
Unknown shape, 0.2 m
Radar Cross Section
Medium (>0.1 m² and <1 m²)

Expand to show TLE details & history
Last TLE update: 4 days ago

TLE from 4 days ago
0 ARIANE 1 DEB
1 28556U 79104V   25291.81426617  .00000667  00000-0  37969-1 0  9995
2 28556  16.6651 318.3168 7319609 289.7118  92.8620  1.95681849 90630
Epoch: 2025-10-18T19:32Z
TLE epoch observation values (Epoch: 2025-10-18T19:32:32.597Z)
Latitude
16.65829°
Longitude
84.77809°
Altitude
32,426.392 km
Speed
2.405 km/s
True Right ascension
03h 01m 48s
True Declination
16° 38' 27"
Sunlit
Object was in daylight at epoch
Visualization orbit readout
Latitude
Unknown
Longitude
Unknown
Altitude
Unknown
Speed
Unknown
Apparent Right ascension
Unknown
Apparent Declination
Unknown
Sunlit
N/A
Visualization observer readout
Local Sidereal Time
21:34:50
Azimuth
Unknown
Elevation
Unknown
Doppler factor
Unknown
Orbital elements
Apogee altitude
40,393.138 km
Perigee altitude
860.208 km
Semi-major axis
27,004.81 km
Eccentricity
0.73196
Inclination
16.6651°
RAAN
318.3168°
Arg. of periapsis
289.7118°
True anomaly
157.59342°
Mean anomaly
92.862°
Eccentric anomaly
126.5518°
Mean motion
0.48908 °/min
Orbital period
736.07 mins
BSTAR
0.037969
Loading maneuver chart data...
Computing Atmospheric mass density...
Loading historical data...
Loading historical data...
Loading historical data...
Loading historical data...
Loading historical data...
Loading historical data...
Loading historical data...

Documentation

Showing up to 5 results
|